sat.trackr.live / text

‹ back to catalog

STARLINK-35625

NORAD 66140 · 2025-237AC

PAYLOAD ACTIVE UNKNOWN

§ Identity

Operator
Country
US
Launch date
2025-10-22
Launch site
AFWTR
Launch vehicle
Mass (kg)
RCS (m²)

Purposes: comms

External: N2YO · Heavens-Above · Gunter

§ Orbital elements

Epoch: 2026-05-25T02:59:38.643648Z

Period
94.10 min
Inclination
53.1594°
Eccentricity
0.0001198
Mean motion
15.30210969 rev/d
Perigee alt
474.4 km
Apogee alt
476.0 km
Semi-major
6,853.3 km
B*
5.9114e-4
RAAN
44.5448°
Arg perigee
81.7708°
Mean anomaly
278.3429°
Rev number
3,431

§ Raw data

STARLINK-356251 66140U 25237AC  26145.12475282  .00017195  00000+0  59114-3 0  99902 66140  53.1594  44.5448 0001198  81.7708 278.3429 15.30210969 34317

JSON: /api/v1/satellites/66140 · /tle

For live sub-satellite position, see the globe view (requires WebGL).

§ Visibility from observer

Set your observer location to see the next 7 days of passes ≥ 10°. The values pass through the URL so the page stays shareable.

No JS? Fill the form by hand. The geolocation button needs JavaScript.